| time (UTC) | temp F | wind direction | speed knots | gust knots | rain 1hr in | rain 24hr in | rain mn in | humidity % | barometer mb |
| 20260506175929 | 53 | 63 | 2.6 | 2.6 | 0.00 | 0.00 | 0.00 | 89 | 1020.9 |
| 20260506175426 | 53 | 42 | 1.7 | 4.3 | 0.00 | 0.00 | 0.00 | 88 | 1020.6 |
| 20260506174922 | 54 | 97 | 3.5 | 3.5 | 0.00 | 0.00 | 0.00 | 88 | 1020.5 |
| 20260506174420 | 54 | 81 | 1.7 | 3.5 | 0.00 | 0.00 | 0.00 | 89 | 1020.4 |
| 20260506173917 | 54 | 52 | 2.6 | 4.3 | 0.00 | 0.00 | 0.00 | 89 | 1020.3 |
| 20260506173414 | 53 | 67 | 1.7 | 3.5 | 0.00 | 0.00 | 0.00 | 89 | 1020.4 |
| 20260506172911 | 53 | 93 | 1.7 | 1.7 | 0.00 | 0.00 | 0.00 | 89 | 1020.3 |
| 20260506172407 | 54 | 80 | 1.7 | 3.5 | 0.00 | 0.00 | 0.00 | 88 | 1020.4 |
| 20260506171905 | 54 | 119 | 1.7 | 3.5 | 0.00 | 0.00 | 0.00 | 89 | 1020.2 |
| 20260506171402 | 54 | 101 | 1.7 | 5.2 | 0.00 | 0.00 | 0.00 | 89 | 1020.2 |
| 20260506170900 | 54 | 39 | 1.7 | 3.5 | 0.00 | 0.00 | 0.00 | 90 | 1020.2 |
| 20260506170355 | 53 | 82 | 2.6 | 4.3 | 0.00 | 0.00 | 0.00 | 91 | 1020.0 |
| 20260506165855 | 53 | 93 | 0.0 | 2.6 | 0.00 | 0.00 | 0.00 | 91 | 1020.2 |
| 20260506165353 | 53 | 116 | 1.7 | 3.5 | 0.00 | 0.00 | 0.00 | 92 | 1020.2 |
| 20260506164849 | 53 | 84 | 1.7 | 2.6 | 0.00 | 0.00 | 0.00 | 92 | 1020.2 |
| 20260506164345 | 53 | 137 | 1.7 | 6.1 | 0.00 | 0.00 | 0.00 | 92 | 1020.3 |
| 20260506163843 | 53 | 98 | 4.3 | 5.2 | 0.00 | 0.00 | 0.00 | 92 | 1020.3 |
| 20260506163337 | 52 | 56 | 1.7 | 3.5 | 0.00 | 0.00 | 0.00 | 93 | 1020.0 |
| 20260506162833 | 52 | 24 | 3.5 | 3.5 | 0.00 | 0.00 | 0.00 | 92 | 1020.2 |
| 20260506162331 | 52 | 83 | 0.9 | 5.2 | 0.00 | 0.00 | 0.00 | 92 | 1020.2 |
| 20260506161828 | 52 | 10 | 0.9 | 3.5 | 0.00 | 0.00 | 0.00 | 91 | 1020.4 |
| 20260506161326 | 52 | 105 | 1.7 | 1.7 | 0.00 | 0.00 | 0.00 | 91 | 1020.4 |
| 20260506160823 | 52 | 112 | 1.7 | 2.6 | 0.00 | 0.00 | 0.00 | 91 | 1020.5 |
| 20260506160319 | 52 | 205 | 0.9 | 1.7 | 0.00 | 0.00 | 0.00 | 91 | 1020.4 |
| 20260506155818 | 52 | 92 | 1.7 | 2.6 | 0.00 | 0.00 | 0.00 | 91 | 1020.3 |
| 20260506155315 | 52 | 32 | 1.7 | 2.6 | 0.00 | 0.00 | 0.00 | 90 | 1020.7 |
| 20260506153427 | 52 | 70 | 0.9 | 5.2 | 0.00 | 0.00 | 0.00 | 89 | 1020.1 |
| 20260506152925 | 53 | 48 | 4.3 | 7.0 | 0.00 | 0.00 | 0.00 | 89 | 1020.3 |
| 20260506152421 | 53 | 37 | 1.7 | 3.5 | 0.00 | 0.00 | 0.00 | 89 | 1020.1 |
| 20260506151920 | 53 | 63 | 1.7 | 4.3 | 0.00 | 0.00 | 0.00 | 88 | 1020.0 |
| 20260506151416 | 53 | 85 | 2.6 | 7.0 | 0.00 | 0.00 | 0.00 | 88 | 1019.8 |
| 20260506150914 | 53 | 48 | 4.3 | 4.3 | 0.00 | 0.00 | 0.00 | 88 | 1020.0 |
| 20260506150410 | 53 | 207 | 1.7 | 5.2 | 0.00 | 0.00 | 0.00 | 88 | 1019.6 |
| 20260506145907 | 53 | 77 | 1.7 | 3.5 | 0.00 | 0.00 | 0.00 | 87 | 1019.5 |
| 20260506145403 | 53 | 42 | 3.5 | 3.5 | 0.00 | 0.00 | 0.00 | 88 | 1019.7 |
| 20260506144901 | 53 | 98 | 1.7 | 2.6 | 0.00 | 0.00 | 0.00 | 88 | 1019.7 |
| 20260506144357 | 53 | 81 | 1.7 | 3.5 | 0.00 | 0.00 | 0.00 | 88 | 1019.5 |
| 20260506143856 | 53 | 95 | 1.7 | 3.5 | 0.00 | 0.00 | 0.00 | 87 | 1019.5 |
| 20260506143352 | 53 | 44 | 1.7 | 2.6 | 0.00 | 0.00 | 0.00 | 88 | 1019.5 |
| 20260506142851 | 53 | 88 | 1.7 | 2.6 | 0.00 | 0.00 | 0.00 | 88 | 1019.5 |
| 20260506142348 | 53 | 28 | 1.7 | 2.6 | 0.00 | 0.00 | 0.00 | 88 | 1019.5 |
| 20260506141846 | 53 | 61 | 1.7 | 5.2 | 0.00 | 0.00 | 0.00 | 87 | 1019.5 |
| 20260506141344 | 53 | 87 | 1.7 | 3.5 | 0.00 | 0.00 | 0.00 | 87 | 1019.7 |
| 20260506140842 | 53 | 49 | 1.7 | 3.5 | 0.00 | 0.00 | 0.00 | 88 | 1019.6 |
| 20260506140338 | 53 | 66 | 1.7 | 3.5 | 0.00 | 0.00 | 0.00 | 88 | 1019.5 |
| 20260506135835 | 53 | 39 | 2.6 | 7.8 | 0.00 | 0.00 | 0.00 | 87 | 1019.4 |
| 20260506135332 | 53 | 68 | 1.7 | 3.5 | 0.00 | 0.00 | 0.00 | 88 | 1019.4 |
| 20260506134828 | 53 | 58 | 2.6 | 4.3 | 0.00 | 0.00 | 0.00 | 88 | 1019.3 |
| 20260506134325 | 53 | 68 | 1.7 | 3.5 | 0.00 | 0.00 | 0.00 | 88 | 1019.2 |
| 20260506133822 | 53 | 52 | 2.6 | 3.5 | 0.00 | 0.00 | 0.00 | 87 | 1019.0 |
| 20260506133319 | 53 | 98 | 3.5 | 3.5 | 0.00 | 0.00 | 0.00 | 88 | 1019.1 |
| 20260506132816 | 52 | 11 | 1.7 | 4.3 | 0.00 | 0.00 | 0.00 | 88 | 1018.8 |
| 20260506132313 | 52 | 82 | 0.9 | 3.5 | 0.00 | 0.00 | 0.00 | 88 | 1019.0 |
| 20260506131811 | 52 | 83 | 2.6 | 2.6 | 0.00 | 0.00 | 0.00 | 88 | 1018.9 |
| 20260506131306 | 52 | 51 | 1.7 | 1.7 | 0.00 | 0.00 | 0.00 | 88 | 1018.8 |
| 20260506130804 | 52 | 36 | 1.7 | 3.5 | 0.00 | 0.00 | 0.00 | 88 | 1019.1 |
| 20260506130300 | 52 | 75 | 1.7 | 5.2 | 0.00 | 0.00 | 0.00 | 88 | 1019.2 |
| 20260506125759 | 52 | 89 | 1.7 | 4.3 | 0.00 | 0.00 | 0.00 | 88 | 1019.2 |
| 20260506125256 | 52 | 64 | 1.7 | 7.8 | 0.00 | 0.00 | 0.00 | 88 | 1019.1 |
| 20260506124754 | 52 | 83 | 2.6 | 3.5 | 0.00 | 0.00 | 0.00 | 88 | 1019.2 |
| 20260506124251 | 52 | 17 | 1.7 | 3.5 | 0.00 | 0.00 | 0.00 | 88 | 1019.2 |
| 20260506123749 | 52 | 311 | 0.0 | 3.5 | 0.00 | 0.00 | 0.00 | 88 | 1019.5 |
| 20260506123247 | 52 | 293 | 2.6 | 3.5 | 0.00 | 0.00 | 0.00 | 88 | 1019.4 |
| 20260506122744 | 52 | 97 | 2.6 | 7.8 | 0.00 | 0.00 | 0.00 | 88 | 1019.3 |
| 20260506122241 | 52 | 49 | 3.5 | 7.0 | 0.00 | 0.00 | 0.00 | 88 | 1019.1 |
| 20260506121739 | 52 | 131 | 0.9 | 3.5 | 0.00 | 0.00 | 0.00 | 88 | 1019.2 |
| 20260506121235 | 52 | 146 | 1.7 | 6.1 | 0.00 | 0.00 | 0.00 | 88 | 1019.0 |
| 20260506120733 | 52 | 67 | 0.9 | 4.3 | 0.00 | 0.00 | 0.00 | 88 | 1018.7 |
| 20260506120231 | 52 | 46 | 1.7 | 2.6 | 0.00 | 0.00 | 0.00 | 88 | 1018.8 |
| 20260506115728 | 52 | 102 | 3.5 | 11.3 | 0.00 | 0.00 | 0.00 | 87 | 1018.6 |
| 20260506115226 | 53 | 72 | 2.6 | 5.2 | 0.00 | 0.00 | 0.00 | 87 | 1018.5 |
| 20260506114724 | 53 | 66 | 2.6 | 5.2 | 0.00 | 0.00 | 0.00 | 87 | 1018.7 |
| 20260506114221 | 53 | 40 | 2.6 | 4.3 | 0.00 | 0.00 | 0.00 | 87 | 1018.6 |
| 20260506113720 | 53 | 93 | 1.7 | 5.2 | 0.00 | 0.00 | 0.00 | 87 | 1018.6 |
| 20260506113217 | 53 | 87 | 3.5 | 4.3 | 0.00 | 0.00 | 0.00 | 87 | 1018.5 |
| 20260506112713 | 53 | 340 | 2.6 | 3.5 | 0.00 | 0.00 | 0.00 | 87 | 1018.6 |
| 20260506112211 | 53 | 28 | 1.7 | 5.2 | 0.00 | 0.00 | 0.00 | 87 | 1018.6 |
| 20260506111708 | 53 | 340 | 0.9 | 7.8 | 0.00 | 0.00 | 0.00 | 87 | 1018.6 |
| 20260506111206 | 53 | 70 | 2.6 | 8.7 | 0.00 | 0.00 | 0.00 | 88 | 1018.6 |
| 20260506110703 | 53 | 102 | 1.7 | 7.8 | 0.00 | 0.00 | 0.00 | 88 | 1018.6 |
| 20260506110200 | 53 | 259 | 3.5 | 4.3 | 0.00 | 0.00 | 0.00 | 87 | 1018.3 |
| 20260506105657 | 53 | 262 | 0.9 | 4.3 | 0.00 | 0.00 | 0.00 | 88 | 1018.3 |
| 20260506105153 | 53 | 83 | 3.5 | 6.1 | 0.00 | 0.00 | 0.00 | 88 | 1018.2 |
| 20260506104652 | 53 | 66 | 2.6 | 4.3 | 0.00 | 0.00 | 0.00 | 89 | 1018.2 |
| 20260506104149 | 53 | 28 | 0.0 | 3.5 | 0.00 | 0.00 | 0.00 | 88 | 1018.0 |
| 20260506103646 | 53 | 56 | 3.5 | 3.5 | 0.00 | 0.00 | 0.00 | 89 | 1017.7 |
| 20260506103143 | 53 | 85 | 3.5 | 5.2 | 0.00 | 0.00 | 0.00 | 89 | 1018.0 |
| 20260506102641 | 52 | 338 | 3.5 | 3.5 | 0.00 | 0.00 | 0.00 | 90 | 1017.7 |
| 20260506102138 | 52 | 85 | 2.6 | 3.5 | 0.00 | 0.00 | 0.00 | 90 | 1017.6 |
| 20260506101635 | 52 | 113 | 1.7 | 7.0 | 0.00 | 0.00 | 0.00 | 91 | 1017.6 |
| 20260506101132 | 52 | 85 | 1.7 | 3.5 | 0.00 | 0.00 | 0.00 | 91 | 1017.4 |
| 20260506100630 | 52 | 16 | 1.7 | 3.5 | 0.00 | 0.00 | 0.00 | 90 | 1017.5 |
| 20260506100128 | 52 | 110 | 0.9 | 3.5 | 0.00 | 0.00 | 0.00 | 90 | 1017.5 |
| 20260506095626 | 52 | 88 | 1.7 | 1.7 | 0.00 | 0.00 | 0.00 | 89 | 1017.5 |
| 20260506095122 | 53 | 16 | 1.7 | 2.6 | 0.00 | 0.00 | 0.00 | 89 | 1017.4 |
| 20260506094620 | 53 | 101 | 1.7 | 11.3 | 0.00 | 0.00 | 0.00 | 89 | 1017.5 |
| 20260506094118 | 53 | 80 | 1.7 | 3.5 | 0.00 | 0.00 | 0.00 | 89 | 1017.5 |
| 20260506093616 | 53 | 131 | 1.7 | 5.2 | 0.00 | 0.00 | 0.00 | 89 | 1017.6 |
| 20260506093113 | 52 | 153 | 3.5 | 3.5 | 0.00 | 0.00 | 0.00 | 89 | 1017.5 |
| 20260506092611 | 52 | 190 | 1.7 | 5.2 | 0.00 | 0.00 | 0.00 | 89 | 1017.5 |
| 20260506092107 | 53 | 69 | 2.6 | 2.6 | 0.00 | 0.00 | 0.00 | 89 | 1017.3 |
| 20260506091606 | 53 | 99 | 5.2 | 5.2 | 0.00 | 0.00 | 0.00 | 89 | 1017.6 |
| 20260506091103 | 52 | 87 | 1.7 | 3.5 | 0.00 | 0.00 | 0.00 | 91 | 1017.5 |
| 20260506090600 | 52 | 96 | 2.6 | 2.6 | 0.00 | 0.00 | 0.00 | 90 | 1017.4 |
| 20260506090056 | 52 | 103 | 3.5 | 3.5 | 0.00 | 0.00 | 0.00 | 91 | 1017.3 |
| 20260506085554 | 52 | 77 | 1.7 | 2.6 | 0.00 | 0.00 | 0.00 | 91 | 1017.5 |
| 20260506085050 | 52 | 88 | 1.7 | 1.7 | 0.00 | 0.00 | 0.00 | 90 | 1017.3 |
| 20260506084547 | 52 | 123 | 0.9 | 3.5 | 0.00 | 0.00 | 0.00 | 90 | 1017.5 |
| 20260506084043 | 52 | 71 | 0.9 | 5.2 | 0.00 | 0.00 | 0.00 | 91 | 1017.4 |
| 20260506083540 | 52 | 72 | 2.6 | 2.6 | 0.00 | 0.00 | 0.00 | 90 | 1017.2 |
| 20260506083038 | 52 | 100 | 1.7 | 2.6 | 0.00 | 0.00 | 0.00 | 90 | 1017.3 |
| 20260506082534 | 53 | 92 | 0.0 | 1.7 | 0.00 | 0.00 | 0.00 | 89 | 1017.5 |
| 20260506082030 | 53 | 127 | 5.2 | 5.2 | 0.00 | 0.00 | 0.00 | 89 | 1017.5 |
| 20260506081528 | 53 | 84 | 3.5 | 3.5 | 0.00 | 0.00 | 0.00 | 88 | 1017.3 |
| 20260506081026 | 53 | 33 | 1.7 | 3.5 | 0.00 | 0.00 | 0.00 | 89 | 1017.3 |
| 20260506080523 | 53 | 195 | 0.9 | 8.7 | 0.00 | 0.00 | 0.00 | 90 | 1017.2 |
| 20260506073507 | 53 | 132 | 1.7 | 3.5 | 0.00 | 0.00 | 0.00 | 89 | 1016.9 |
| 20260506073004 | 53 | 76 | 0.9 | 3.5 | 0.00 | 0.00 | 0.00 | 89 | 1016.8 |
| 20260506072501 | 53 | 27 | 1.7 | 2.6 | 0.00 | 0.00 | 0.00 | 89 | 1016.6 |
| 20260506071958 | 53 | 244 | 2.6 | 2.6 | 0.00 | 0.00 | 0.00 | 90 | 1016.8 |
| 20260506071456 | 53 | 232 | 2.6 | 3.5 | 0.00 | 0.00 | 0.00 | 90 | 1016.7 |
| 20260506070953 | 53 | 45 | 0.0 | 3.5 | 0.00 | 0.00 | 0.00 | 92 | 1016.7 |
| 20260506070450 | 52 | 98 | 0.9 | 2.6 | 0.00 | 0.00 | 0.00 | 92 | 1016.8 |
| 20260506062428 | 52 | 64 | 0.0 | 1.7 | 0.00 | 0.00 | 0.00 | 92 | 1016.7 |
| 20260506061923 | 52 | 87 | 0.9 | 1.7 | 0.00 | 0.00 | 0.00 | 92 | 1016.8 |
| 20260506061420 | 52 | 81 | 0.9 | 1.7 | 0.00 | 0.00 | 0.00 | 92 | 1016.7 |
| 20260506060918 | 52 | 66 | 1.7 | 1.7 | 0.00 | 0.00 | 0.00 | 92 | 1016.7 |
| 20260506060416 | 52 | 81 | 0.9 | 2.6 | 0.00 | 0.00 | 0.00 | 91 | 1016.7 |
| 20260506051348 | 54 | 122 | 0.0 | 1.7 | 0.00 | 0.00 | 0.00 | 88 | 1016.4 |
| 20260506050845 | 55 | 54 | 1.7 | 2.6 | 0.00 | 0.00 | 0.00 | 87 | 1016.5 |
| 20260506050343 | 55 | 49 | 0.0 | 1.7 | 0.00 | 0.00 | 0.00 | 86 | 1016.4 |
| 20260506044833 | 55 | 32 | 1.7 | 1.7 | 0.00 | 0.00 | 0.00 | 87 | 1016.3 |
| 20260506044331 | 54 | 39 | 0.9 | 5.2 | 0.00 | 0.00 | 0.00 | 88 | 1016.0 |
| 20260506043828 | 55 | 75 | 0.9 | 1.7 | 0.00 | 0.00 | 0.00 | 88 | 1015.9 |
| 20260506043325 | 55 | 47 | 1.7 | 3.5 | 0.00 | 0.00 | 0.00 | 88 | 1015.9 |
| 20260506042823 | 55 | 77 | 0.9 | 1.7 | 0.00 | 0.00 | 0.00 | 87 | 1016.0 |
| 20260506042322 | 55 | 69 | 0.0 | 1.7 | 0.00 | 0.00 | 0.00 | 87 | 1015.8 |
| 20260506041821 | 55 | 84 | 1.7 | 1.7 | 0.00 | 0.00 | 0.00 | 86 | 1016.0 |
| 20260506041317 | 56 | 34 | 0.9 | 1.7 | 0.00 | 0.00 | 0.00 | 85 | 1016.0 |
| 20260506040814 | 56 | 83 | 0.0 | 1.7 | 0.00 | 0.00 | 0.00 | 84 | 1015.9 |
| 20260506040311 | 56 | 72 | 0.0 | 1.7 | 0.00 | 0.00 | 0.00 | 83 | 1015.7 |
| 20260506035808 | 57 | 66 | 0.0 | 1.7 | 0.00 | 0.00 | 0.00 | 82 | 1015.6 |
| 20260506035306 | 57 | 37 | 1.7 | 1.7 | 0.00 | 0.00 | 0.00 | 80 | 1015.6 |
| 20260506034802 | 58 | 94 | 1.7 | 2.6 | 0.00 | 0.00 | 0.00 | 79 | 1015.7 |
| 20260506034259 | 58 | 86 | 1.7 | 3.5 | 0.00 | 0.00 | 0.00 | 79 | 1015.6 |
| 20260506033756 | 58 | 108 | 3.5 | 3.5 | 0.00 | 0.00 | 0.00 | 79 | 1015.6 |
| 20260506033253 | 58 | 40 | 3.5 | 4.3 | 0.00 | 0.00 | 0.00 | 78 | 1015.8 |
| 20260506032750 | 58 | 93 | 3.5 | 7.0 | 0.00 | 0.00 | 0.00 | 79 | 1015.5 |
| 20260506032247 | 58 | 75 | 0.0 | 3.5 | 0.00 | 0.00 | 0.00 | 78 | 1015.6 |
| 20260506031743 | 58 | 54 | 3.5 | 5.2 | 0.00 | 0.00 | 0.00 | 78 | 1015.4 |
| 20260506031241 | 58 | 110 | 3.5 | 3.5 | 0.00 | 0.00 | 0.00 | 78 | 1015.4 |
| 20260506030739 | 58 | 30 | 5.2 | 6.1 | 0.00 | 0.00 | 0.00 | 78 | 1015.3 |
| 20260506030236 | 59 | 63 | 0.0 | 1.7 | 0.00 | 0.00 | 0.00 | 78 | 1015.3 |
| 20260506025733 | 59 | 224 | 1.7 | 2.6 | 0.00 | 0.00 | 0.00 | 78 | 1015.3 |
| 20260506025230 | 59 | 83 | 1.7 | 3.5 | 0.00 | 0.00 | 0.00 | 77 | 1015.4 |
| 20260506024726 | 59 | 189 | 0.9 | 3.5 | 0.00 | 0.00 | 0.00 | 77 | 1015.4 |
| 20260506024223 | 59 | 59 | 1.7 | 1.7 | 0.00 | 0.00 | 0.00 | 77 | 1015.3 |
| 20260506023719 | 59 | 33 | 7.8 | 7.8 | 0.00 | 0.00 | 0.00 | 76 | 1015.4 |
| 20260506023217 | 59 | 74 | 0.9 | 3.5 | 0.00 | 0.00 | 0.00 | 76 | 1015.5 |
| 20260506022713 | 60 | 4 | 0.9 | 3.5 | 0.00 | 0.00 | 0.00 | 76 | 1015.7 |
| 20260506022211 | 60 | 84 | 0.0 | 5.2 | 0.00 | 0.00 | 0.00 | 76 | 1015.6 |
| 20260506021709 | 60 | 15 | 2.6 | 8.7 | 0.00 | 0.00 | 0.00 | 75 | 1015.5 |
| 20260506021206 | 60 | 21 | 1.7 | 1.7 | 0.00 | 0.00 | 0.00 | 76 | 1015.5 |
| 20260506020702 | 60 | 63 | 1.7 | 4.3 | 0.00 | 0.00 | 0.00 | 76 | 1015.6 |
| 20260506020200 | 60 | 107 | 2.6 | 7.8 | 0.00 | 0.00 | 0.00 | 75 | 1015.4 |
| 20260506015657 | 60 | 114 | 1.7 | 3.5 | 0.00 | 0.00 | 0.00 | 75 | 1015.6 |
| 20260506015155 | 60 | 202 | 1.7 | 7.0 | 0.00 | 0.00 | 0.00 | 75 | 1015.4 |
| 20260506014652 | 60 | 256 | 1.7 | 2.6 | 0.00 | 0.00 | 0.00 | 75 | 1015.4 |
| 20260506014148 | 60 | 218 | 3.5 | 3.5 | 0.00 | 0.00 | 0.00 | 74 | 1015.4 |
| 20260506013646 | 61 | 231 | 3.5 | 4.3 | 0.00 | 0.00 | 0.00 | 74 | 1015.6 |
| 20260506013143 | 61 | 160 | 1.7 | 4.3 | 0.00 | 0.00 | 0.00 | 73 | 1015.5 |
| 20260506012639 | 61 | 66 | 0.0 | 2.6 | 0.00 | 0.00 | 0.00 | 73 | 1015.3 |
| 20260506012136 | 62 | 78 | 1.7 | 5.2 | 0.00 | 0.00 | 0.00 | 70 | 1015.3 |
| 20260506011633 | 63 | 307 | 0.0 | 2.6 | 0.00 | 0.00 | 0.00 | 70 | 1015.4 |
| 20260506011129 | 63 | 41 | 2.6 | 3.5 | 0.00 | 0.00 | 0.00 | 71 | 1015.3 |
| 20260506010628 | 62 | 22 | 5.2 | 5.2 | 0.00 | 0.00 | 0.00 | 71 | 1015.3 |
| 20260506010125 | 63 | 237 | 2.6 | 3.5 | 0.00 | 0.00 | 0.00 | 70 | 1015.4 |
| 20260506005622 | 64 | 46 | 0.0 | 5.2 | 0.00 | 0.00 | 0.00 | 67 | 1015.4 |
| 20260506005118 | 65 | 137 | 0.9 | 2.6 | 0.00 | 0.00 | 0.00 | 67 | 1015.3 |
| 20260506004615 | 66 | 40 | 1.7 | 2.6 | 0.00 | 0.00 | 0.00 | 67 | 1015.2 |
| 20260506004112 | 65 | 49 | 2.6 | 5.2 | 0.00 | 0.00 | 0.00 | 67 | 1015.4 |
| 20260506003608 | 66 | 58 | 1.7 | 8.7 | 0.00 | 0.00 | 0.00 | 67 | 1015.3 |
| 20260506003104 | 65 | 312 | 1.7 | 4.3 | 0.00 | 0.00 | 0.00 | 68 | 1015.4 |
| 20260506002600 | 65 | 111 | 1.7 | 5.2 | 0.00 | 0.00 | 0.00 | 67 | 1015.5 |
| 20260506002056 | 68 | 104 | 2.6 | 3.5 | 0.00 | 0.00 | 0.00 | 64 | 1015.5 |
| 20260506001553 | 68 | 61 | 1.7 | 1.7 | 0.00 | 0.00 | 0.00 | 62 | 1015.6 |
| 20260506001050 | 68 | 93 | 3.5 | 3.5 | 0.00 | 0.00 | 0.00 | 63 | 1015.6 |
| 20260506000547 | 69 | 77 | 1.7 | 2.6 | 0.00 | 0.00 | 0.00 | 62 | 1015.7 |
| 20260506000045 | 67 | 74 | 1.7 | 3.5 | 0.00 | 0.00 | 0.00 | 65 | 1015.8 |
| 20260505235543 | 66 | 44 | 2.6 | 3.5 | 0.00 | 0.00 | 0.00 | 67 | 1015.7 |
| 20260505235039 | 66 | 113 | 3.5 | 5.2 | 0.00 | 0.00 | 0.00 | 67 | 1015.8 |
| 20260505234536 | 66 | 47 | 1.7 | 3.5 | 0.00 | 0.00 | 0.00 | 68 | 1015.8 |
| 20260505234033 | 66 | 64 | 2.6 | 2.6 | 0.00 | 0.00 | 0.00 | 66 | 1015.9 |
| 20260505233531 | 66 | 41 | 2.6 | 7.0 | 0.00 | 0.00 | 0.00 | 66 | 1016.2 |
| 20260505233028 | 64 | 111 | 1.7 | 6.1 | 0.00 | 0.00 | 0.00 | 68 | 1016.0 |
| 20260505232526 | 65 | 11 | 8.7 | 9.6 | 0.00 | 0.00 | 0.00 | 67 | 1016.1 |
| 20260505232023 | 65 | 109 | 1.7 | 9.6 | 0.00 | 0.00 | 0.00 | 67 | 1016.2 |
| 20260505231520 | 67 | 103 | 2.6 | 4.3 | 0.00 | 0.00 | 0.00 | 65 | 1016.2 |
| 20260505231019 | 66 | 51 | 3.5 | 3.5 | 0.00 | 0.00 | 0.00 | 66 | 1016.3 |
| 20260505230515 | 66 | 273 | 4.3 | 5.2 | 0.00 | 0.00 | 0.00 | 67 | 1016.2 |
| 20260505230012 | 65 | 57 | 3.5 | 3.5 | 0.00 | 0.00 | 0.00 | 69 | 1016.2 |
| 20260505225509 | 65 | 22 | 1.7 | 4.3 | 0.00 | 0.00 | 0.00 | 69 | 1016.3 |
| 20260505225005 | 63 | 351 | 1.7 | 7.0 | 0.00 | 0.00 | 0.00 | 71 | 1016.4 |
| 20260505224502 | 64 | 36 | 0.9 | 3.5 | 0.00 | 0.00 | 0.00 | 69 | 1016.3 |
| 20260505223959 | 64 | 13 | 0.9 | 7.0 | 0.00 | 0.00 | 0.00 | 68 | 1016.5 |
| 20260505223456 | 64 | 30 | 1.7 | 5.2 | 0.00 | 0.00 | 0.00 | 69 | 1016.4 |
| 20260505222952 | 63 | 142 | 0.0 | 3.5 | 0.00 | 0.00 | 0.00 | 71 | 1016.4 |
| 20260505222448 | 63 | 23 | 1.7 | 5.2 | 0.00 | 0.00 | 0.00 | 71 | 1016.4 |
| 20260505221944 | 62 | 63 | 2.6 | 5.2 | 0.00 | 0.00 | 0.00 | 71 | 1016.8 |
| 20260505221442 | 64 | 20 | 0.0 | 11.3 | 0.00 | 0.00 | 0.00 | 69 | 1016.7 |
| 20260505220939 | 64 | 352 | 1.7 | 4.3 | 0.00 | 0.00 | 0.00 | 69 | 1016.7 |
| 20260505220436 | 65 | 84 | 1.7 | 3.5 | 0.00 | 0.00 | 0.00 | 68 | 1016.5 |
| 20260505215933 | 64 | 39 | 2.6 | 5.2 | 0.00 | 0.00 | 0.00 | 69 | 1016.8 |
| 20260505215431 | 63 | 78 | 2.6 | 3.5 | 0.00 | 0.00 | 0.00 | 72 | 1016.7 |
| 20260505214929 | 63 | 70 | 1.7 | 2.6 | 0.00 | 0.00 | 0.00 | 71 | 1016.7 |
| 20260505214427 | 62 | 11 | 2.6 | 3.5 | 0.00 | 0.00 | 0.00 | 72 | 1016.8 |
| 20260505213924 | 62 | 40 | 2.6 | 5.2 | 0.00 | 0.00 | 0.00 | 72 | 1017.0 |
| 20260505213421 | 62 | 127 | 9.6 | 9.6 | 0.00 | 0.00 | 0.00 | 73 | 1016.7 |
| 20260505212917 | 61 | 357 | 0.9 | 3.5 | 0.00 | 0.00 | 0.00 | 75 | 1016.9 |
| 20260505212414 | 60 | 214 | 1.7 | 8.7 | 0.00 | 0.00 | 0.00 | 75 | 1017.0 |
| 20260505211910 | 60 | 19 | 0.9 | 5.2 | 0.00 | 0.00 | 0.00 | 76 | 1017.0 |
| 20260505211408 | 60 | 6 | 1.7 | 7.8 | 0.00 | 0.00 | 0.00 | 76 | 1016.9 |
| 20260505210904 | 61 | 340 | 0.9 | 3.5 | 0.00 | 0.00 | 0.00 | 75 | 1016.9 |
| 20260505210402 | 61 | 6 | 1.7 | 7.0 | 0.00 | 0.00 | 0.00 | 75 | 1017.0 |
| 20260505205858 | 61 | 24 | 1.7 | 3.5 | 0.00 | 0.00 | 0.00 | 75 | 1017.0 |
| 20260505205357 | 60 | 96 | 1.7 | 2.6 | 0.00 | 0.00 | 0.00 | 76 | 1017.0 |
| 20260505204853 | 60 | 27 | 0.9 | 8.7 | 0.00 | 0.00 | 0.00 | 76 | 1017.3 |
| 20260505204351 | 61 | 81 | 1.7 | 4.3 | 0.00 | 0.00 | 0.00 | 75 | 1017.0 |
| 20260505203848 | 61 | 345 | 0.0 | 4.3 | 0.00 | 0.00 | 0.00 | 75 | 1016.9 |
| 20260505203344 | 60 | 42 | 7.8 | 8.7 | 0.00 | 0.00 | 0.00 | 75 | 1017.0 |
| 20260505202841 | 60 | 31 | 1.7 | 3.5 | 0.00 | 0.00 | 0.00 | 78 | 1016.9 |
| 20260505202337 | 60 | 263 | 1.7 | 4.3 | 0.00 | 0.00 | 0.00 | 76 | 1016.9 |
| 20260505201834 | 60 | 341 | 2.6 | 3.5 | 0.00 | 0.00 | 0.00 | 77 | 1016.9 |
| 20260505201331 | 60 | 64 | 3.5 | 7.0 | 0.00 | 0.00 | 0.00 | 76 | 1016.9 |
| 20260505200830 | 60 | 29 | 1.7 | 4.3 | 0.00 | 0.00 | 0.00 | 76 | 1016.8 |
| 20260505200326 | 59 | 261 | 1.7 | 6.1 | 0.00 | 0.00 | 0.00 | 78 | 1016.7 |
| 20260505195821 | 59 | 76 | 1.7 | 9.6 | 0.00 | 0.00 | 0.00 | 78 | 1017.0 |
| 20260505195319 | 60 | 333 | 2.6 | 3.5 | 0.00 | 0.00 | 0.00 | 77 | 1017.0 |
| 20260505194816 | 59 | 9 | 3.5 | 4.3 | 0.00 | 0.00 | 0.00 | 79 | 1017.0 |
| 20260505194313 | 59 | 31 | 1.7 | 5.2 | 0.00 | 0.00 | 0.00 | 79 | 1017.0 |
| 20260505193808 | 59 | 278 | 0.9 | 6.1 | 0.00 | 0.00 | 0.00 | 77 | 1017.1 |
| 20260505193307 | 59 | 284 | 0.9 | 3.5 | 0.00 | 0.00 | 0.00 | 77 | 1016.9 |
| 20260505192804 | 59 | 31 | 3.5 | 3.5 | 0.00 | 0.00 | 0.00 | 77 | 1017.0 |
| 20260505192305 | 60 | 107 | 1.7 | 3.5 | 0.00 | 0.00 | 0.00 | 78 | 1017.0 |
| 20260505191800 | 60 | 45 | 2.6 | 8.7 | 0.00 | 0.00 | 0.00 | 77 | 1016.9 |
| 20260505191258 | 60 | 16 | 3.5 | 6.1 | 0.00 | 0.00 | 0.00 | 77 | 1016.8 |
| 20260505190754 | 59 | 87 | 1.7 | 4.3 | 0.00 | 0.00 | 0.00 | 77 | 1016.9 |
| 20260505190249 | 59 | 52 | 1.7 | 3.5 | 0.00 | 0.00 | 0.00 | 78 | 1016.8 |
| 20260505185746 | 59 | 115 | 1.7 | 4.3 | 0.00 | 0.00 | 0.00 | 79 | 1016.9 |
| 20260505185242 | 59 | 22 | 1.7 | 2.6 | 0.00 | 0.00 | 0.00 | 79 | 1016.9 |
| 20260505184738 | 59 | 359 | 0.9 | 7.8 | 0.00 | 0.00 | 0.00 | 79 | 1017.0 |
| 20260505184236 | 59 | 69 | 0.0 | 5.2 | 0.00 | 0.00 | 0.00 | 80 | 1017.0 |
| 20260505183732 | 59 | 83 | 1.7 | 3.5 | 0.00 | 0.00 | 0.00 | 80 | 1016.8 |
| 20260505183230 | 59 | 302 | 0.0 | 1.7 | 0.00 | 0.00 | 0.00 | 81 | 1017.0 |
| 20260505182726 | 59 | 32 | 0.0 | 2.6 | 0.00 | 0.00 | 0.00 | 81 | 1016.9 |
| 20260505182223 | 59 | 74 | 3.5 | 7.0 | 0.00 | 0.00 | 0.00 | 80 | 1016.8 |
| 20260505181719 | 58 | 107 | 0.9 | 1.7 | 0.00 | 0.00 | 0.00 | 81 | 1016.8 |
| 20260505181217 | 58 | 89 | 1.7 | 4.3 | 0.00 | 0.00 | 0.00 | 82 | 1016.8 |
| 20260505180714 | 58 | 1 | 0.0 | 1.7 | 0.00 | 0.00 | 0.00 | 82 | 1016.7 |